Temperature
32 32 31 31 31 32 32 32 32 32 33 33 32 32 32 31 31 30 29 28 27 26 25 24 23 22 21 20 20 19 19 19 19 18 18 18 18 18 18 18 18 18 17 17
32 31 32 33 33 33 33 32 32 32 34 33 32 32 32 32 31 31 30 29 27 26 25 24 23 22 21 20 20 19 19 19 19 18 18 18 18 18 18 18 18 18 17 17
31 32 33 33 34 33 33 32 32 32 33 33 32 30 30 32 31 31 30 29 28 27 25 24 23 22 22 21 20 19 19 19 19 18 18 18 18 18 18 18 18 18 17 17
32 33 33 33 34 33 32 33 33 33 32 31 31 28 29 30 31 31 31 29 29 27 26 25 23 23 22 21 20 20 19 19 19 19 18 18 18 18 18 18 18 18 17 17
33 33 33 33 34 34 33 34 33 32 31 29 30 28 29 30 30 30 31 30 29 28 26 25 24 23 22 21 21 20 20 19 19 19 19 18 18 18 18 18 18 18 17 17
33 35 35 34 35 35 34 33 33 31 30 28 30 29 29 30 29 30 31 30 29 28 27 26 24 23 23 22 21 20 20 20 19 19 19 18 18 18 18 18 18 18 17 17
32 33 35 35 34 34 33 32 29 28 28 29 30 29 30 31 32 32 31 30 30 29 27 26 25 23 23 22 21 21 20 20 19 19 19 19 18 18 18 18 18 17 17 17
31 32 34 34 34 33 33 32 29 28 28 29 30 29 29 31 32 32 31 30 30 29 27 26 25 24 23 22 22 21 20 20 19 19 19 18 18 18 18 18 18 17 17 17
32 32 35 35 35 34 33 32 32 30 29 28 29 28 30 31 31 31 31 30 30 29 28 27 25 24 23 23 22 21 20 20 19 19 19 18 18 18 18 18 17 17 17 17
33 32 34 34 34 34 34 33 32 31 29 28 29 28 28 29 30 30 30 30 30 29 28 27 26 25 24 23 22 21 20 20 19 19 19 18 18 18 18 18 17 17 17 17
33 32 32 33 33 33 33 33 32 32 31 29 28 28 30 30 30 30 30 29 29 29 28 27 26 25 24 23 22 21 20 20 19 19 19 18 18 18 18 18 17 17 17 17
33 32 31 32 34 34 34 33 33 31 30 30 29 28 31 30 31 30 29 28 28 28 27 27 26 25 24 23 22 21 20 20 19 19 19 18 18 18 18 17 17 17 17 17
33 32 30 31 32 32 32 33 33 33 32 30 29 28 31 30 30 29 28 28 27 27 27 26 25 24 24 23 22 21 21 20 19 19 19 18 18 18 18 17 17 17 17 17
32 31 30 29 30 31 31 32 33 32 31 31 30 30 30 30 29 29 28 28 27 27 26 26 25 24 23 23 22 21 21 20 20 19 19 18 18 18 17 17 17 17 17 17
32 31 31 31 31 31 31 32 32 32 32 31 31 30 30 30 29 28 28 28 27 26 26 25 24 23 23 22 22 21 21 20 20 19 19 18 18 18 17 17 17 17 17 16
31 30 30 30 31 31 31 32 32 32 33 32 32 30 30 29 28 28 27 27 26 26 25 25 24 23 22 22 21 20 20 20 20 19 19 18 18 18 17 17 17 17 16 16
31 30 29 29 31 31 30 31 32 32 32 32 31 30 30 29 28 27 27 27 26 26 25 24 23 23 22 21 21 20 20 19 19 19 18 18 18 18 17 17 17 16 16 16
30 29 29 29 29 28 30 32 32 32 32 32 31 30 30 29 28 28 27 26 26 25 24 23 23 22 22 21 21 20 19 19 19 18 18 18 17 17 17 17 16 16 16 16
31 29 28 28 28 28 30 31 32 31 30 31 30 30 29 29 28 27 26 25 25 25 24 23 23 22 22 21 20 19 19 19 18 18 18 17 17 17 17 17 16 16 16 16
31 30 29 28 27 27 29 31 31 31 29 29 29 28 28 28 27 26 25 24 24 24 23 23 22 22 21 20 20 19 18 18 18 18 17 17 17 17 17 16 16 16 16 16
29 28 28 28 27 28 29 30 30 28 27 28 27 27 27 27 26 25 24 24 23 23 23 22 22 21 21 20 19 19 18 18 18 17 17 17 17 17 17 16 16 16 16 15
28 28 27 27 27 27 29 29 27 26 27 26 26 26 26 25 25 24 23 23 22 22 22 21 21 20 20 19 19 19 18 18 17 17 17 17 17 16 16 16 16 16 15 15
28 28 28 27 26 26 27 26 26 26 26 25 25 25 25 24 24 23 22 22 22 21 21 21 20 20 19 19 19 18 18 17 17 17 17 16 16 16 16 16 16 16 15 15
27 27 27 26 26 26 25 25 25 25 25 25 25 24 24 24 23 22 22 21 21 21 21 20 20 19 19 19 18 18 17 17 17 16 16 16 16 16 16 16 16 15 15 15
26 26 26 25 25 25 25 24 24 24 24 24 24 24 23 23 22 21 21 20 20 20 19 19 19 19 18 18 18 17 17 17 16 16 16 16 16 16 16 15 15 15 15 15
25 25 25 24 24 24 23 23 23 23 23 23 23 23 22 22 21 21 20 20 20 19 19 19 18 18 18 18 17 17 17 16 16 16 16 16 16 16 15 15 15 15 15 15
Wind_Speed
11 10 8 7 9 12 9 4 3 2 3 3 4 7 10 11 11 11 11 10 11 10 10 10 11 11 10 9 7 6 5 4 3 2 2 2 1 1 1 1 2 1 0 0
10 12 11 10 11 10 8 6 4 4 4 4 2 2 7 9 10 10 11 11 12 12 11 10 10 10 10 9 8 7 5 5 3 2 1 1 1 1 2 1 1 1 1 1
14 11 10 12 11 9 6 7 7 6 5 4 2 1 3 7 9 10 11 11 12 13 14 12 10 10 10 9 9 7 5 5 4 3 2 1 1 0 1 2 1 1 1 1
14 13 12 13 11 8 7 8 9 7 5 5 4 2 5 7 9 10 11 10 12 14 14 13 11 10 10 10 10 8 7 5 4 3 3 3 2 2 1 2 1 2 1 0
15 13 13 12 10 8 8 9 10 7 6 7 5 2 5 7 7 10 11 11 11 13 15 15 14 11 10 11 10 9 7 6 5 4 3 2 1 1 1 1 1 2 1 1
17 14 12 11 10 8 8 11 10 7 5 8 7 4 4 6 7 9 12 13 12 12 14 15 14 12 10 10 10 10 8 6 5 4 3 2 2 1 0 0 1 1 1 1
18 17 14 11 12 10 10 9 6 6 6 7 4 1 2 5 8 9 11 12 13 12 13 14 13 12 10 10 10 11 9 7 5 4 4 3 2 2 2 1 1 1 0 1
15 14 15 13 14 11 11 10 7 7 7 6 2 1 2 2 5 7 9 11 12 13 13 13 13 13 11 11 10 11 10 8 7 5 4 3 2 2 1 1 1 1 1 1
12 12 13 11 11 12 11 9 7 8 9 7 2 2 3 4 4 7 9 10 11 11 13 14 14 13 12 11 11 11 10 8 7 6 5 4 3 1 1 1 1 1 0 0
14 12 12 9 9 13 13 10 7 7 5 6 4 3 3 7 6 7 8 8 10 11 11 11 12 13 12 11 11 11 10 8 7 6 5 5 3 2 2 1 0 0 1 1
14 12 13 10 10 11 10 11 9 7 5 6 5 3 3 6 7 7 7 7 8 9 11 12 11 11 10 10 11 11 10 9 7 6 5 4 4 3 3 2 1 0 1 1
11 11 12 12 10 10 12 12 11 8 7 6 5 3 2 4 7 9 7 6 8 7 8 10 10 10 10 10 9 9 10 9 8 6 5 5 4 3 3 2 1 1 1 0
7 8 10 11 9 9 10 12 12 11 8 6 6 3 3 4 6 10 9 8 9 9 9 9 10 9 9 9 8 8 8 9 8 7 6 5 4 3 2 2 2 1 1 0
6 10 11 13 9 8 10 13 13 11 8 7 5 4 4 4 5 8 8 8 9 9 8 9 9 8 7 7 7 7 6 6 7 7 6 5 4 3 3 2 2 1 1 1
9 12 13 13 13 13 13 13 13 11 10 9 7 4 7 6 6 7 8 8 7 8 8 8 8 8 7 7 6 6 5 5 5 6 6 5 4 3 3 2 2 1 1 1
9 11 11 13 14 15 14 13 13 13 12 10 6 4 3 7 7 6 7 8 8 7 8 8 8 8 7 7 7 6 5 5 5 5 4 4 4 3 3 2 2 1 1 1
9 9 11 13 13 13 15 13 12 11 12 10 6 4 5 6 9 8 7 7 7 6 5 7 8 7 7 7 7 7 5 5 5 4 4 4 3 3 3 3 2 2 2 1
9 8 8 12 12 15 11 8 10 9 8 5 0 3 5 6 8 8 7 6 6 7 7 7 7 7 7 8 8 6 5 5 5 5 4 3 4 3 3 3 2 2 1 1
11 9 9 10 13 12 11 8 8 7 5 3 3 3 3 6 7 7 6 5 5 6 6 6 7 7 7 7 8 7 5 5 5 4 4 3 3 3 3 2 2 2 1 2
13 10 10 11 12 12 8 4 5 5 3 5 5 4 2 3 3 4 6 5 5 6 6 5 5 6 7 7 7 7 6 5 4 4 3 3 3 3 3 3 2 2 2 2
11 10 11 12 12 9 5 5 4 4 1 6 5 4 2 3 2 4 6 6 5 5 5 5 5 5 5 6 7 6 5 5 4 4 3 2 2 3 3 2 2 2 2 2
10 9 10 10 11 7 6 4 2 4 5 5 5 5 4 6 7 7 7 7 5 5 5 5 5 5 5 5 6 5 4 4 4 4 3 3 2 2 2 2 2 2 2 2
6 4 4 3 2 2 5 6 5 4 4 4 4 4 4 5 6 7 6 6 5 4 5 4 5 5 4 4 4 5 4 4 4 4 3 2 2 1 1 1 1 1 2 2
3 2 2 2 1 2 3 4 4 4 3 4 3 3 3 4 5 6 5 5 4 4 4 4 4 4 4 4 4 4 4 3 4 3 3 3 3 3 2 1 2 1 1 1
5 4 3 3 0 1 3 3 3 3 4 4 3 4 4 4 4 5 4 4 3 2 3 4 4 4 4 4 4 4 4 4 3 3 3 4 3 3 3 3 2 2 2 2
5 4 4 2 2 0 2 4 4 3 2 3 2 2 3 3 3 4 3 3 3 3 2 3 4 4 5 5 4 3 4 4 4 4 4 3 3 3 3 3 2 0 1 3
Wind_Direction
241 250 252 238 229 245 263 279 294 259 237 231 209 174 171 176 175 167 165 162 158 155 155 153 152 148 145 141 140 141 140 132 137 145 174 182 186 175 146 133 141 142 215 326
245 249 255 260 252 258 277 289 270 281 265 266 265 168 166 176 178 173 170 168 161 157 152 156 157 155 152 148 148 149 152 147 155 154 168 183 171 171 157 125 134 153 155 278
241 245 250 258 261 274 288 289 287 278 281 284 224 226 211 180 174 175 170 168 166 161 159 159 163 163 158 155 158 158 152 152 155 155 159 157 139 184 135 160 170 169 181 211
247 250 251 256 258 261 276 275 277 283 284 284 264 245 223 201 183 174 168 166 167 163 160 159 165 168 162 160 158 150 150 151 151 168 169 175 182 185 186 189 181 156 166 248
247 243 247 256 266 269 274 285 285 292 290 283 275 251 231 197 182 175 168 167 174 164 160 160 164 166 164 163 158 151 148 153 157 174 164 189 192 194 172 157 155 173 168 217
257 254 251 259 261 264 279 285 295 308 283 262 253 227 216 187 178 182 169 166 166 158 155 156 158 158 165 160 155 150 148 153 162 172 167 196 190 172 16 187 141 207 173 177
247 250 249 254 257 252 253 263 279 289 267 254 237 221 225 172 177 171 160 160 155 154 154 155 156 157 163 159 156 150 151 158 164 167 167 186 186 196 210 250 198 254 230 130
240 241 235 233 244 251 250 254 252 275 283 292 265 165 144 143 142 145 149 156 153 155 155 157 158 157 162 159 154 151 155 162 167 168 166 164 178 213 213 234 253 249 269 32
246 248 238 228 236 247 256 256 250 260 270 276 269 173 161 162 147 142 149 154 153 153 155 156 158 159 163 163 158 155 154 160 165 165 159 160 181 193 205 191 228 284 302 106
251 264 262 230 238 240 250 262 275 278 290 299 297 267 199 164 167 159 157 168 158 153 152 151 156 160 163 162 156 151 150 154 159 155 166 166 172 167 178 219 235 325 348 12
244 257 264 246 230 244 242 249 256 269 281 286 291 287 189 183 170 163 162 174 153 149 151 151 153 150 150 156 153 151 152 157 158 156 162 151 160 167 171 177 196 167 341 12
240 252 258 254 250 250 256 259 263 261 260 267 277 278 199 169 162 148 150 155 141 142 145 142 142 145 152 151 153 157 155 159 159 158 156 154 155 164 177 181 188 171 196 243
252 251 258 261 255 246 252 265 270 278 274 266 264 236 176 178 150 142 146 157 147 146 148 142 142 145 148 147 148 154 158 161 161 161 158 156 160 165 170 169 158 158 171 207
264 255 255 260 264 262 251 258 266 271 275 275 260 198 176 181 144 143 147 152 146 149 144 144 141 140 140 137 135 140 152 155 155 153 154 153 164 169 166 172 160 165 178 185
251 253 248 253 261 264 261 262 265 266 271 275 274 248 190 169 149 150 152 149 149 155 154 146 141 136 132 132 133 138 144 141 140 145 156 156 166 167 159 169 165 182 220 213
247 266 267 258 256 258 266 269 269 265 263 262 253 263 117 124 132 145 147 158 160 159 152 145 138 137 140 143 144 143 146 141 133 139 150 150 157 165 172 171 168 201 230 263
243 256 268 268 266 260 257 259 265 268 271 266 258 220 150 144 147 151 155 158 142 139 143 147 142 146 151 151 147 154 152 150 146 150 156 153 159 167 173 182 171 205 222 233
240 254 259 265 268 262 260 267 269 272 289 305 320 111 139 140 133 131 135 139 143 146 154 147 148 158 164 158 151 151 159 156 156 158 165 172 174 179 175 178 183 205 217 229
243 237 251 261 263 260 265 269 269 264 273 346 63 77 98 110 119 114 113 128 144 143 140 143 157 163 151 149 147 149 164 159 160 166 178 189 188 181 181 189 199 213 222 244
239 226 236 250 260 262 269 286 318 289 242 41 65 62 93 118 151 127 112 108 114 123 130 138 146 138 135 140 146 151 160 157 164 168 174 177 181 180 191 204 217 218 220 229
232 233 238 249 255 257 299 310 295 263 77 45 61 59 51 77 78 114 112 104 97 101 115 120 122 123 131 138 139 147 155 162 159 154 154 165 172 188 189 189 204 221 227 213
241 237 241 251 257 260 349 345 24 74 73 59 59 55 51 77 96 101 104 105 106 110 113 126 127 124 126 132 141 150 155 149 142 148 158 170 178 208 180 173 205 217 231 229
246 258 252 253 260 29 29 48 54 56 68 69 59 61 79 100 108 108 107 108 116 125 129 130 127 125 129 134 148 157 148 143 147 153 160 170 176 194 177 202 217 222 214 235
266 339 301 310 116 73 60 55 57 58 61 59 49 66 92 97 106 110 113 115 116 119 131 128 134 144 141 138 142 141 139 148 158 167 174 186 192 188 174 204 206 219 222 246
305 285 265 258 289 48 50 36 38 64 64 55 46 59 71 81 89 102 103 107 119 125 134 140 145 153 148 141 137 146 153 156 170 187 197 212 209 190 194 202 214 198 176 194
293 295 277 279 74 356 57 25 3 23 65 69 55 69 78 89 106 110 113 115 129 143 141 153 160 163 157 151 154 161 168 175 191 210 211 218 219 206 207 201 197 110 197 181
Height
1481 1483 1485 1483 1479 1477 1475 1477 1482 1476 1468 1471 1474 1476 1477 1480 1483 1487 1492 1497 1501 1505 1509 1511 1514 1516 1517 1518 1519 1520 1522 1523 1524 1524 1526 1527 1527 1528 1528 1528 1528 1528 1528 1528
1482 1483 1475 1471 1470 1470 1471 1477 1479 1473 1466 1469 1473 1475 1473 1476 1480 1483 1488 1493 1498 1502 1506 1510 1513 1515 1516 1517 1518 1519 1520 1522 1523 1524 1525 1526 1527 1527 1527 1527 1527 1527 1527 1527
1482 1477 1471 1470 1469 1472 1474 1478 1476 1475 1468 1468 1474 1484 1478 1474 1477 1481 1485 1490 1494 1499 1503 1508 1511 1514 1515 1516 1517 1519 1520 1521 1522 1523 1524 1525 1526 1527 1527 1527 1527 1527 1526 1526
1473 1469 1469 1468 1468 1469 1477 1467 1467 1470 1477 1482 1479 1501 1487 1476 1475 1478 1482 1487 1492 1496 1501 1505 1509 1512 1514 1515 1516 1518 1519 1520 1521 1522 1523 1524 1525 1526 1526 1526 1526 1526 1526 1525
1471 1467 1467 1469 1466 1464 1468 1462 1465 1469 1478 1487 1483 1495 1489 1475 1478 1477 1479 1484 1489 1493 1498 1502 1506 1509 1512 1514 1515 1516 1518 1519 1520 1521 1522 1524 1524 1525 1525 1525 1525 1525 1525 1525
1464 1461 1461 1462 1460 1460 1461 1464 1468 1472 1483 1499 1483 1489 1491 1477 1476 1474 1475 1480 1486 1490 1495 1499 1504 1507 1510 1512 1514 1515 1517 1518 1519 1520 1521 1522 1523 1524 1524 1524 1524 1525 1524 1524
1469 1462 1458 1459 1462 1461 1463 1476 1495 1504 1505 1497 1475 1484 1483 1466 1465 1468 1472 1478 1483 1488 1492 1497 1501 1505 1508 1511 1513 1514 1516 1517 1518 1520 1520 1521 1522 1523 1523 1523 1524 1524 1524 1523
1475 1473 1457 1456 1460 1463 1463 1470 1496 1512 1510 1493 1480 1486 1476 1464 1465 1468 1472 1477 1481 1486 1490 1495 1499 1503 1506 1509 1511 1513 1514 1516 1518 1519 1520 1520 1521 1522 1522 1523 1523 1523 1523 1523
1468 1468 1450 1449 1452 1456 1464 1467 1466 1481 1487 1495 1488 1484 1473 1465 1468 1469 1472 1476 1480 1484 1488 1493 1497 1501 1504 1507 1510 1512 1514 1515 1517 1518 1519 1520 1520 1521 1522 1522 1522 1523 1523 1522
1456 1466 1452 1448 1451 1451 1454 1457 1465 1476 1494 1502 1495 1489 1484 1473 1471 1471 1473 1476 1479 1483 1487 1491 1495 1499 1503 1506 1509 1511 1513 1514 1516 1517 1518 1519 1520 1520 1521 1521 1521 1521 1521 1521
1451 1464 1460 1452 1456 1459 1456 1458 1461 1467 1474 1494 1504 1495 1467 1467 1468 1471 1474 1477 1478 1482 1486 1490 1494 1497 1501 1504 1507 1509 1512 1513 1515 1516 1517 1518 1519 1519 1520 1520 1520 1520 1520 1520
1449 1459 1466 1457 1446 1445 1450 1452 1456 1471 1476 1476 1489 1488 1460 1463 1464 1470 1475 1477 1478 1482 1486 1490 1493 1496 1500 1503 1506 1508 1510 1512 1514 1515 1516 1517 1518 1518 1519 1519 1519 1519 1519 1518
1449 1459 1474 1470 1461 1453 1454 1451 1451 1453 1461 1473 1485 1485 1461 1462 1464 1469 1474 1477 1479 1483 1486 1490 1493 1495 1498 1501 1504 1507 1509 1511 1513 1514 1515 1516 1517 1517 1518 1518 1518 1518 1517 1517
1451 1457 1470 1480 1471 1460 1459 1455 1451 1455 1466 1470 1470 1471 1465 1463 1466 1469 1474 1476 1479 1484 1487 1490 1492 1495 1498 1501 1503 1506 1509 1510 1512 1513 1514 1514 1515 1516 1516 1517 1517 1516 1516 1516
1450 1458 1459 1457 1453 1453 1453 1453 1451 1454 1456 1464 1463 1462 1462 1461 1466 1470 1474 1476 1479 1483 1487 1489 1492 1495 1498 1501 1503 1505 1507 1509 1510 1511 1512 1513 1514 1514 1515 1515 1515 1515 1515 1515
1451 1457 1458 1460 1453 1452 1453 1451 1450 1450 1449 1451 1455 1460 1457 1460 1465 1469 1473 1476 1479 1482 1485 1488 1491 1494 1497 1499 1501 1504 1506 1507 1509 1510 1511 1512 1512 1513 1513 1514 1514 1514 1513 1513
1452 1457 1464 1465 1455 1455 1463 1452 1450 1449 1446 1448 1455 1457 1456 1461 1465 1469 1473 1475 1478 1482 1485 1487 1490 1493 1496 1497 1500 1502 1504 1506 1507 1508 1510 1510 1511 1511 1512 1512 1512 1512 1512 1511
1453 1458 1461 1463 1465 1479 1456 1441 1442 1445 1446 1444 1448 1452 1455 1461 1465 1469 1473 1476 1478 1481 1484 1487 1490 1493 1494 1496 1499 1502 1504 1505 1506 1506 1507 1508 1509 1510 1510 1510 1510 1510 1510 1510
1446 1454 1462 1465 1469 1465 1450 1443 1443 1448 1452 1447 1450 1454 1458 1461 1466 1470 1474 1476 1479 1481 1484 1486 1489 1491 1493 1495 1497 1500 1502 1504 1505 1505 1506 1506 1507 1508 1508 1508 1508 1508 1508 1508
1444 1447 1458 1463 1472 1476 1456 1443 1443 1448 1458 1453 1455 1458 1461 1462 1468 1473 1475 1477 1479 1481 1483 1486 1488 1490 1491 1493 1495 1497 1499 1501 1502 1503 1503 1504 1505 1505 1506 1506 1506 1506 1506 1506
1451 1453 1457 1462 1466 1459 1450 1445 1447 1464 1466 1459 1459 1462 1464 1466 1470 1473 1475 1478 1481 1482 1484 1486 1488 1489 1491 1492 1494 1496 1498 1499 1500 1501 1502 1503 1503 1504 1504 1504 1504 1504 1504 1504
1451 1455 1459 1459 1467 1467 1451 1449 1456 1462 1460 1461 1463 1465 1467 1468 1471 1473 1476 1478 1481 1483 1484 1486 1487 1488 1490 1492 1493 1495 1496 1498 1499 1500 1500 1501 1501 1502 1503 1502 1502 1502 1502 1502
1446 1449 1450 1456 1462 1458 1455 1457 1460 1461 1462 1464 1466 1467 1469 1471 1472 1474 1477 1479 1481 1483 1485 1486 1487 1488 1490 1491 1492 1494 1495 1496 1497 1498 1499 1499 1500 1500 1500 1500 1500 1501 1500 1500
1447 1447 1450 1454 1455 1457 1459 1461 1462 1463 1464 1465 1468 1469 1470 1472 1474 1475 1478 1480 1482 1483 1485 1485 1486 1488 1489 1490 1492 1493 1494 1495 1496 1496 1497 1497 1498 1498 1498 1499 1499 1499 1499 1499
1451 1451 1453 1457 1458 1459 1461 1463 1463 1464 1466 1468 1469 1470 1472 1474 1475 1476 1478 1480 1481 1483 1484 1485 1486 1487 1488 1489 1490 1492 1493 1493 1494 1495 1496 1496 1496 1496 1496 1497 1497 1496 1496 1496
1454 1455 1457 1459 1460 1462 1464 1465 1465 1466 1467 1469 1470 1471 1473 1475 1476 1477 1478 1480 1481 1482 1483 1484 1485 1486 1487 1488 1489 1490 1491 1491 1492 1493 1494 1494 1495 1495 1494 1494 1495 1494 1494 1494